Location: ?p T�y H?
(16.4500°N, 107.6667°E)
Time: 23:51:00
(UTC+00:00)

Daily predictions for brighter satellites

Satellite Brightness Start Highest point End
(mag) Time Altitude Azimuth Time Altitude Azimuth Time Altitude Azimuth
YAOGAN 1 2.8 12:00:28 10° S 12:04:46 69° W 12:09:03 10° NNW
ATLAS 5 CENTAUR R/B 2.0 12:04:09 10° SW 12:04:45 16° SSW 12:04:45 16° SSW
Meteor 2-14 Rocket 4.3 12:03:06 10° S 12:09:04 66° E 12:14:35 12° NNE
Lacrosse 5 rocket 2.2 12:07:13 10° S 12:11:06 38° SE 12:11:06 38° SE
ARGOS 3.0 12:06:33 10° SSE 12:11:52 74° ENE 12:17:13 10° N
S3M 4.1 12:06:49 10° NNE 12:12:41 47° E 12:18:34 10° SSE
Okean-O 3.8 12:13:56 10° S 12:18:09 44° W 12:22:22 10° NNW
SWIFT 3.9 12:16:15 10° W 12:20:00 30° SSW 12:21:18 25° SSE
ATLAS 3B CENTAUR R/B 1.2 12:15:02 10° WSW 12:20:21 78° SW 12:20:21 78° SW
Meteor 2-21 Rocket 4.3 12:15:01 10° S 12:20:59 65° E 12:23:21 37° NNE
BREEZE-M DEB (TANK) 4.3 12:18:34 10° WNW 12:22:43 57° SW 12:35:48 10° SE
Cosmos 2297 3.9 12:17:49 10° SSW 12:23:25 70° WNW 12:26:43 26° N
Cosmos 1892 3.8 12:20:08 10° SSW 12:23:41 42° W 12:25:18 26° NNW
Hubble Space Telescope 1.8 12:19:51 10° NW 12:22:40 35° NNW 12:22:40 35° NNW
Skynet4D Del rocket 4.0 12:18:24 10° W 12:24:32 53° NNW 12:25:43 45° NNE
Helios 1A Rocket 3.9 12:22:17 10° S 12:26:15 47° W 12:30:14 10° NNW
NATO 3D Rocket 4.5 12:28:13 10° SW 12:31:54 31° SSE 12:31:54 31° SSE
IUS-9 SRM-1 3.1 12:33:26 10° WNW 12:35:21 52° WNW 12:35:21 52° WNW
CZ-2C R/B 4.4 12:32:57 10° NNW 12:37:49 31° WNW 12:42:41 10° SW
Lacrosse 5 3.9 12:40:01 10° WNW 12:44:11 27° WSW 12:48:23 10° S
Milstar 3 3.4 12:50:05 10° W 12:58:40 47° NNW 12:59:08 47° N
CZ-3A R/B 3.3 12:57:17 10° SW 13:03:45 57° SSE 13:03:45 57° SSE
Cosmos 1833 Rocket 4.3 12:58:34 10° NNW 13:00:44 24° NNW 13:00:44 24° NNW
COSMOS 2406 4.3 13:06:26 10° NW 13:18:18 - S 13:11:43 42° WSW
Cosmos 1943 Rocket 3.4 13:07:08 10° SW 13:11:43 36° W 13:11:43 36° W
Cosmos 2369 Rocket 3.9 13:14:31 10° SSW 13:16:55 26° SSW 13:16:55 26° SSW
ATLAS CENTAUR Rocket 4.4 13:38:33 10° WNW 14:12:34 59° W 14:12:34 59° W
SL-16 R/B 4.1 20:34:00 10° SSE 20:38:32 25° ESE 20:43:03 10° NE
CZ-3A R/B 3.9 20:46:18 72° SSW 20:46:18 72° SSW 21:30:59 10° ESE
CZ-3A R/B 3.9 20:46:18 72° SSW 20:46:18 72° SSW 21:30:58 10° ESE
CZ-3A R/B 3.9 20:46:19 72° SSW 20:46:19 72° SSW 21:30:58 10° ESE
CZ-3A R/B 3.9 20:46:17 72° SSW 20:46:17 72° SSW 21:30:58 10° ESE
USA 238 DEB 4.3 20:53:23 46° NE 20:53:23 46° NE 20:58:02 10° NNE
USA 238 4.2 20:53:23 48° NE 20:53:23 48° NE 20:58:08 10° NNE
Ariane H10+ 3.8 20:53:34 31° S 20:54:29 32° SSE 21:09:24 10° E
CZ-3C R/B 3.6 21:06:44 13° ENE 21:06:44 13° ENE 21:06:58 10° ENE
CZ-3A R/B 3.9 21:03:03 57° W 21:06:45 83° SSW 21:17:21 10° ESE
Centaur D-1AR AC-36 2.8 21:08:08 80° NW 21:08:18 81° NNW 21:28:42 10° ENE
H-2A R/B 3.3 21:14:50 10° SE 21:18:59 39° ENE 21:19:55 35° NE
Ariane H10 3.8 21:18:44 39° SSW 21:20:05 46° SSE 21:37:24 10° E
ATLAS 3B CENTAUR R/B 3.7 21:27:21 38° WSW 21:29:43 44° SSW 21:43:43 10° SE
Aurora 2 Rocket 4.2 21:33:11 23° NNE 21:33:11 23° NNE 21:36:12 10° ENE
ASC 2 Rocket 3.3 21:33:43 61° NE 21:33:43 61° NE 21:37:11 10° ENE
Atlas Centaur 2 3.9 21:36:29 25° NNW 21:38:29 28° N 21:45:13 10° ENE
Meteor PRIRODA 4.5 21:44:30 10° NNE 21:48:00 49° E 21:51:32 10° S
Cosmos 2034 Rocket 4.0 21:42:34 10° SSW 21:48:51 63° W 21:55:08 10° N
deb Chang Zheng 4 3.3 21:50:15 10° N 21:54:28 85° WNW 21:58:41 10° SSW
Okean 1-7 Rocket 3.4 21:55:42 22° N 21:58:32 77° W 22:02:56 10° S
Cosmos 1898 Rocket 3.4 21:56:44 33° NW 21:58:56 60° WSW 22:04:02 10° S
Nadezhda 4 Rocket 4.2 21:53:06 10° N 21:59:11 69° E 22:05:17 10° SSE
Cosmos 1634 Rocket 4.5 21:53:33 10° S 21:59:37 61° E 22:05:39 10° NNE
NOSS 3-2 (C) 3.4 21:59:22 35° W 22:00:37 41° WNW 22:05:56 10° N
USA 267 3.6 21:54:22 10° SE 22:00:48 62° NE 22:06:53 12° NNW
Meteor 1-16 Rocket 4.5 21:55:35 10° SSW 22:01:10 48° W 22:06:52 10° N
GPS 2-04 Rocket1 2.7 22:01:58 50° W 22:02:53 69° SW 22:07:00 10° SE
IUS R/B (1) 4.0 22:08:53 12° N 22:08:53 12° N 22:09:13 10° NNE
CENTAUR R/B 2.8 22:07:46 29° W 22:08:55 32° WNW 22:14:12 10° N
Lacrosse 5 rocket 3.3 22:18:52 10° N 22:21:46 22° NE 22:24:36 10° ESE
Cosmos 1602 Rocket 4.0 22:17:54 10° N 22:22:20 66° E 22:26:46 10° SSE
SL-16 R/B 3.1 22:17:50 10° SW 22:22:23 25° WNW 22:26:57 10° NNW
Cosmos 1937 Rocket 3.7 22:19:58 12° NNW 22:24:34 46° W 22:29:29 10° S
SJ-7 4.3 22:20:53 10° N 22:24:56 87° WNW 22:28:56 10° SSW
ARIANE 5 R/B 3.8 22:23:35 10° SW 22:25:38 13° SSW 22:27:00 10° SSE
Cosmos 1943 4.0 22:21:45 10° S 22:27:17 56° ESE 22:32:50 10° NNE
Cosmos 1340 2.5 22:25:19 10° N 22:29:04 84° W 22:32:49 10° S
Cosmos 44 Rocket 3.4 22:24:18 10° NNW 22:29:22 63° WSW 22:34:23 10° SSE
SMAP 4.5 22:29:04 10° NNE 22:33:28 42° E 22:37:51 10° S
Envisat 2.9 22:28:39 10° N 22:33:42 74° WNW 22:38:45 10° SSW
Cosmos 1328 3.9 22:29:54 10° N 22:33:48 78° E 22:37:42 10° S
COSMO-SKYMED 1 2.5 22:30:14 10° S 22:34:32 67° W 22:38:50 10° NNW
YAOGAN 6 2.5 22:31:34 10° N 22:35:12 64° W 22:38:48 10° SSW
Okean O Rocket 3.9 22:32:32 10° NE 22:36:16 28° E 22:40:00 10° SSE
Cosmos 2278 Rocket 2.5 22:31:47 10° NNW 22:37:08 44° WSW 22:42:28 10° S
CZ-4B R/B 2.0 22:37:03 10° S 22:40:11 37° W 22:43:22 10° NNW
PSLV R/B 3.8 22:36:21 10° N 22:40:25 70° W 22:44:29 10° SSW
ATLAS 3B R/B 3.1 22:34:40 10° SSW 22:41:10 66° ESE 22:47:39 10° NNE
Cosmos 2228 3.0 22:37:49 10° SSW 22:41:59 56° W 22:46:08 10° N
H-2A R/B 3.1 22:42:38 10° NNE 22:47:05 67° ESE 22:51:27 10° S
GPS 2-17 Rocket1 3.0 22:48:09 10° W 22:52:29 75° SSW 22:56:57 10° ESE
ASTRO F (AKARI) 4.4 22:50:23 10° N 22:53:53 65° WNW 22:57:15 10° SSW
GPS 2-18 Rocket1 3.8 22:52:57 10° WNW 22:56:40 42° N 23:00:19 10° ENE
Cosmos 1606 Rocket 4.0 22:53:13 10° SSW 22:57:14 39° W 23:01:16 10° NNW
ERS-2 2.3 22:54:23 10° S 22:57:55 49° W 23:01:26 10° NNW
CZ-3A R/B 4.3 22:54:15 10° W 23:05:34 38° SW 23:13:06 10° SSE
